Find Starlink 35931

NORAD ID: 66519 Int'l Des: 2025-265 Owner: SPXS Country: US Constellation: starlink operational
LEOCIRCULAR

Aktuelle Ansicht

3D-Globus wird geladen...

Über Starlink 35931

Beschreibung wird geladen...

Nächste Überflüge

Passes for default location (London). Set your location on the main map for personalized predictions.

Höhenverlauf

Loading altitude history...

Zweizeiliger Elementsatz

1 66519U 25265D 26150.10285830 .00022206 00000-0 81368-3 0 9999
2 66519 42.9950 178.2292 0000818 251.2765 108.7997 15.27595147 29563
Epoch: 30. Mai 2026 • Age: 15 hours

Aktueller Status

Höhe 486.0 km
Geschwindigkeit 7.63 km/s
Subsatellitenpunkt 40.86°N, 143.41°E
Startdatum 19. Nov. 2025
Alter 0.5 years
Typ internet

Technische Details

Klassifizierung Payload
Masse 575.00 kg
Trockenmasse 530.00 kg
Gesamtmasse 575.00 kg
Länge 0.30 m
Durchmesser 4.10 m
Spannweite 29.00 m
Form Box + pan
Hersteller SPXS
Bus-Typ Starlink V2MO
Phasenstatus In Orbit
Besitzer/Staat SPXS/US

Most Searched